[Date Prev][Date Next][Thread Prev][Thread Next] - [Date Index][Thread Index][Author Index]
2 Line ISS Keps 3-23
- Subject: [sarex] 2 Line ISS Keps 3-23
- From: "Dave Larsen PhD" <doc@xxxxxxxxxxx>
- Date: Wed, 23 Mar 2005 02:08:48 -0800
ISS
1 25544U 98067A 05082.16152453 .00019564 00000-0 15546-3 0 734
2 25544 051.6483 341.0425 0003608 221.1452 291.4071 15.71249953362159
----
Via the sarex mailing list at AMSAT.ORG courtesy of AMSAT-NA.
To unsubscribe, send "unsubscribe sarex" to Majordomo@amsat.org
AMSAT Home